Location: Drouwen
(52.9559°N, 6.7974°E)
Time: 08:14:36
(UTC+00:00)

Cosmos 2322 Rocket - Pass Details

Date: 15 May 2026
Orbit: 831 x 850 km, 71.0° (Epoch: 5 June)

Event Time Altitude Azimuth Distance (km) Brightness Sun altitude
Rises 20:32:28 0° 328° (NNW) 3,406 7.5 -8.5°
Reaches altitude 10° 20:34:55 10° 329° (NNW) 2,471 6.2 -8.8°
Maximum altitude 20:40:36 83° 58° (ENE) 859 2.3 -9.3°
Enters shadow 20:45:51 12° 146° (SSE) 2,298 3.8 -9.8°
